Location: Elliott Corner
(37.4627°N, 119.7746°W)
Time: 22:36:18
(UTC+00:00)

Cosmos 2333 - Pass Details

Date: 10 September 2024
Orbit: 830 x 863 km, 70.9° (Epoch: 13 October)

Event Time Altitude Azimuth Distance (km) Brightness Sun altitude
Rises 12:49:51 0° 331° (NNW) 3,415 7.2 -10.1°
Reaches altitude 10° 12:52:23 10° 326° (NNW) 2,471 6.4 -9.6°
Maximum altitude 12:57:48 49° 254° (WSW) 1,076 4.4 -8.6°
Drops below altitude 10° 13:03:09 10° 180° (S) 2,436 6.5 -7.6°
Sets 13:05:38 0° 175° (S) 3,362 7.3 -7.1°
